Location: Härggis
(46.9540°N, 8.4897°E)
Time: 03:13:32
(UTC+00:00)

Cosmos 2237 Rocket - Pass Details

Date: 27 May 2022
Orbit: 833 x 851 km, 71.0° (Epoch: 26 June)

Event Time Altitude Azimuth Distance (km) Brightness Sun altitude
Exits shadow 02:38:46 - 270° (W) 3,405 4.9 -8.8°
Reaches altitude 10° 02:42:38 10° 296° (WNW) 2,480 4.4 -8.3°
Maximum altitude 02:45:23 14° 325° (NW) 2,240 4.5 -8.0°
Drops below altitude 10° 02:48:08 10° 354° (N) 2,488 5.2 -7.6°
Sets 02:52:03 0° 21° (NNE) 3,428 6.6 -7.2°
